Date,TemperatureHighF,TemperatureAvgF,TemperatureLowF,DewpointHighF,DewpointAvgF,DewpointLowF,HumidityHigh,HumidityAvg,HumidityLow,PressureMaxIn,PressureMinIn,WindSpeedMaxMPH,WindSpeedAvgMPH,GustSpeedMaxMPH,PrecipitationSumIn
2013-1-1,26.8,17.8,10.5,16.7,11.6,6.6,85,76,61,30.15,30.01,17,3,17,0.00
2013-1-2,33.7,21.1,12.2,13.6,7.5,1.0,71,56,37,30.23,30.13,15,5,15,0.00
2013-1-3,27.9,12.3,2.9,8.7,2.3,-2.4,80,65,43,30.24,30.10,10,2,12,0.00
2013-1-4,30.0,14.3,4.0,10.7,4.1,-1.6,79,65,43,30.10,30.00,10,2,10,0.00
2013-1-5,25.9,14.0,5.9,11.5,5.1,-0.4,83,68,51,30.21,30.07,9,2,12,0.00
2013-1-6,30.7,17.1,7.8,14.5,8.6,2.4,83,70,48,30.08,29.82,13,2,13,0.00
2013-1-7,39.8,28.1,14.2,22.1,15.4,8.2,79,60,40,29.88,29.61,37,8,44,0.00
2013-1-8,45.4,38.9,27.2,21.6,18.2,15.1,69,44,32,29.99,29.62,44,17,51,0.00
2013-1-9,46.6,33.4,23.7,29.6,22.1,15.9,100,64,43,30.03,29.66,39,9,39,0.00
2013-1-10,46.9,29.8,18.1,27.2,21.5,14.4,87,73,46,29.66,29.35,28,8,39,0.00
2013-1-11,18.1,9.7,7.2,14.4,6.0,2.9,87,85,82,29.93,29.42,38,18,40,0.04
2013-1-12,12.8,6.9,1.3,7.7,2.6,-2.9,84,82,77,29.99,29.92,13,2,15,0.00
2013-1-13,14.5,3.3,-5.4,8.4,-1.3,-10.0,94,81,73,30.06,29.99,8,2,9,0.00
2013-1-14,10.3,3.7,-8.2,4.2,-1.8,-12.9,92,78,69,30.07,29.92,19,3,19,0.00
2013-1-15,21.2,13.3,8.5,12.2,8.1,4.0,86,79,65,30.11,29.98,11,3,14,0.02
2013-1-16,24.9,13.3,4.1,15.6,7.5,-0.2,94,78,66,30.29,30.11,9,2,10,0.01
2013-1-17,25.0,13.4,2.8,15.6,7.9,-1.2,88,79,66,30.33,30.08,12,2,13,0.00
2013-1-18,45.0,25.9,10.8,22.4,14.4,6.4,92,65,34,30.09,29.88,32,7,35,0.01
2013-1-19,40.4,30.9,20.4,20.3,15.8,11.0,77,55,35,30.16,29.98,30,6,30,0.00
2013-1-20,39.6,27.3,12.3,21.4,16.3,7.7,83,64,36,30.28,30.04,28,6,36,0.00
2013-1-21,32.0,19.3,11.3,20.3,13.7,8.2,95,79,62,30.16,29.94,14,3,14,0.00
2013-1-22,33.4,21.3,10.4,20.4,14.3,6.7,92,75,58,30.04,29.95,14,2,15,0.00
2013-1-23,33.4,24.0,17.1,20.6,16.5,10.7,83,73,58,30.04,29.90,14,2,14,0.00
2013-1-24,53.6,37.5,15.3,28.7,21.3,10.1,82,55,35,30.01,29.80,45,14,46,0.00
2013-1-25,48.7,38.9,27.3,30.5,24.4,19.5,80,57,37,30.02,29.87,33,9,33,0.00
2013-1-26,46.3,31.9,23.8,28.6,23.0,18.8,84,71,47,29.87,29.63,11,3,12,0.00
2013-1-27,38.4,31.5,26.3,29.9,26.2,20.6,92,81,70,29.71,29.60,20,9,26,0.00
2013-1-28,35.4,25.8,17.6,22.4,17.4,7.3,92,71,50,29.74,29.63,17,4,17,0.05
2013-1-29,26.7,16.5,6.1,21.7,10.9,0.5,100,79,52,29.98,29.59,24,5,28,0.01
2013-1-30,20.7,16.2,6.7,18.0,12.3,2.6,89,84,80,29.88,29.77,10,3,10,0.00
2013-1-31,28.9,22.0,15.8,22.3,18.1,12.9,90,85,71,30.06,29.88,15,4,15,0.04
2013-2-1,40.9,24.8,15.2,29.2,20.1,12.3,100,83,62,30.16,29.93,11,2,11,0.00
2013-2-2,32.4,20.3,12.5,25.8,16.3,9.5,92,85,66,30.27,30.15,10,2,10,0.01
2013-2-3,31.3,20.0,12.3,22.3,15.4,8.9,90,82,66,30.15,29.86,21,2,29,0.00
2013-2-4,47.4,34.9,16.2,25.6,20.5,12.5,87,58,38,29.87,29.73,35,14,39,0.00
2013-2-5,40.1,28.1,20.3,26.9,20.6,14.7,85,74,55,29.87,29.69,14,2,14,0.00
2013-2-6,46.6,34.8,20.5,26.7,21.7,15.5,87,60,40,29.99,29.69,21,6,23,0.00
2013-2-7,36.6,25.1,15.0,24.0,17.4,11.2,86,73,54,30.01,29.81,15,3,15,0.00
2013-2-8,44.4,28.4,14.0,23.2,17.4,9.5,88,65,34,29.84,29.73,12,3,14,0.00
2013-2-9,39.9,30.7,22.9,25.3,22.2,16.6,83,71,55,29.76,29.64,19,7,24,0.00
2013-2-10,28.7,23.0,12.1,24.5,17.3,7.3,91,79,61,30.01,29.73,36,12,36,0.00
2013-2-11,29.4,15.2,2.2,16.8,8.1,-1.9,85,74,56,30.00,29.88,19,5,21,0.00
2013-2-12,34.4,18.9,7.3,17.0,10.1,2.7,84,70,46,30.02,29.89,13,3,13,0.00
2013-2-13,45.8,30.0,16.6,28.3,19.9,10.2,89,67,43,29.98,29.82,30,6,30,0.00
2013-2-14,31.7,26.1,21.7,28.3,20.4,16.3,90,79,59,30.25,29.97,30,6,30,0.01
2013-2-15,35.4,24.9,18.3,27.4,20.7,15.3,92,84,69,30.28,30.12,17,4,17,0.02
2013-2-16,41.9,26.1,14.5,27.8,19.0,11.6,89,76,52,30.13,29.73,17,4,17,0.00
2013-2-17,44.4,30.0,17.3,31.3,20.4,13.4,87,69,36,29.86,29.58,27,8,35,0.00
2013-2-18,37.0,26.9,16.7,22.8,18.4,12.2,88,71,45,29.99,29.86,14,5,15,0.00
2013-2-19,36.8,22.3,11.8,20.2,13.6,8.2,87,71,43,29.88,29.61,20,4,21,0.00
2013-2-20,35.9,25.2,17.4,20.9,16.2,10.7,79,69,51,29.74,29.61,22,6,22,0.00
2013-2-21,34.1,24.0,13.6,25.7,18.1,9.7,92,78,62,29.84,29.74,12,2,13,0.01
2013-2-22,35.7,24.0,10.6,22.4,13.9,6.6,92,67,40,29.87,29.60,24,6,25,0.01
2013-2-23,33.8,27.4,20.4,25.4,16.7,12.0,77,64,51,29.84,29.53,23,7,28,0.00
2013-2-24,41.4,29.3,19.2,21.0,16.2,10.5,82,60,28,30.04,29.85,23,10,25,0.02
2013-2-25,39.8,26.6,15.0,19.5,15.4,9.9,82,64,41,29.95,29.73,23,6,23,0.00
2013-2-26,41.6,31.1,20.0,19.1,13.0,7.7,68,48,29,30.12,29.80,28,7,29,0.00
2013-2-27,40.6,26.3,13.2,19.5,13.5,6.4,77,59,38,30.14,30.10,21,6,21,0.00
2013-2-28,43.4,31.1,21.2,20.0,14.3,8.4,77,50,35,30.21,30.11,19,6,21,0.00
2013-3-1,49.2,32.8,20.6,26.9,20.2,13.2,77,61,38,30.24,30.16,16,4,16,0.00
2013-3-2,54.4,37.4,23.1,31.5,26.0,18.4,87,65,40,30.21,29.81,24,5,25,0.00
2013-3-3,61.6,44.5,28.9,32.9,24.5,9.4,83,47,24,29.81,29.44,36,14,41,0.00
2013-3-4,32.0,24.8,11.1,14.9,9.2,1.3,70,52,36,30.20,29.76,36,13,44,0.00
2013-3-5,40.2,23.5,8.6,16.0,9.6,1.4,82,58,30,30.18,29.92,26,6,26,0.00
2013-3-6,52.2,33.8,13.4,29.0,17.9,4.9,75,54,29,29.93,29.59,29,7,33,0.00
2013-3-7,54.6,42.9,32.3,23.4,15.1,10.5,45,33,20,29.90,29.68,27,10,29,0.00
2013-3-8,50.7,38.7,27.3,28.1,22.7,11.5,70,53,37,29.89,29.72,20,6,22,0.00
2013-3-9,46.5,36.1,23.3,25.5,18.8,9.4,73,51,31,30.13,29.78,33,10,35,0.00
2013-3-10,51.2,36.1,19.8,22.2,17.2,9.7,69,48,30,30.14,29.90,17,6,22,0.00
2013-3-11,49.0,37.9,25.4,25.6,21.7,17.1,74,53,32,30.17,29.89,37,9,38,0.00
2013-3-12,45.9,30.1,12.0,21.2,16.4,7.0,87,60,35,30.20,30.01,25,8,25,0.00
2013-3-13,62.9,44.4,25.1,29.8,23.1,15.0,70,46,26,30.10,30.02,29,9,31,0.00
2013-3-14,66.7,54.2,34.4,33.4,27.8,21.3,69,38,25,30.12,29.92,25,8,31,0.00
2013-3-15,69.8,55.8,40.8,28.0,23.4,17.9,53,29,17,29.93,29.80,34,12,36,0.00
2013-3-16,57.2,43.8,32.6,33.1,27.6,20.6,75,54,33,29.93,29.58,18,6,18,0.00
2013-3-17,39.7,33.6,23.9,30.9,20.5,8.6,90,61,28,29.78,29.36,42,10,42,0.01
2013-3-18,43.2,30.6,17.0,20.9,10.8,4.0,71,47,21,29.86,29.74,32,10,32,0.00
2013-3-19,42.5,32.4,18.8,21.2,13.9,0.4,78,49,29,30.14,29.86,21,5,25,0.00
2013-3-20,55.1,35.5,17.5,27.0,15.8,0.3,64,47,26,30.13,29.52,24,5,25,0.00
2013-3-21,46.2,35.5,26.6,30.0,22.9,13.8,91,62,32,29.80,29.46,34,11,34,0.01
2013-3-22,38.0,28.0,18.2,19.2,13.7,6.3,82,57,28,29.98,29.75,34,9,36,0.00
2013-3-23,35.6,23.6,14.6,15.1,10.8,4.5,82,61,28,30.12,29.98,21,5,24,0.00
2013-3-24,34.7,22.8,11.4,11.8,6.6,-3.4,75,52,30,30.14,30.08,30,9,32,0.00
2013-3-25,44.9,26.5,7.2,12.3,4.8,-3.4,73,43,22,30.15,29.95,33,9,33,0.00
2013-3-26,54.6,35.6,19.1,18.9,10.3,0.0,51,36,24,29.96,29.83,13,3,14,0.00
2013-3-27,60.0,42.2,19.0,27.2,17.2,3.7,61,38,24,29.96,29.87,18,5,18,0.00
2013-3-28,64.3,47.4,29.6,28.2,22.7,12.7,70,40,23,30.03,29.92,21,6,22,0.00
2013-3-29,62.2,46.8,34.1,39.4,27.4,14.8,89,49,31,30.10,29.96,23,4,26,0.11
2013-3-30,58.6,46.5,36.3,40.6,31.5,22.8,92,61,27,30.12,30.03,28,7,36,0.36
2013-3-31,63.4,44.7,27.6,30.0,25.1,20.3,81,50,26,30.03,29.94,32,7,39,0.00
2013-4-1,60.3,45.5,27.5,26.1,21.7,16.3,71,42,23,30.06,29.94,13,3,13,0.00
2013-4-2,66.6,46.9,25.3,28.5,21.1,12.9,67,39,21,30.02,29.88,17,6,21,0.00
2013-4-3,66.3,48.6,31.9,30.4,24.1,13.7,58,40,23,30.02,29.89,27,4,38,0.00
2013-4-4,70.8,54.8,37.9,35.2,30.8,24.1,64,43,24,30.00,29.75,22,3,24,0.00
2013-4-5,63.0,53.8,44.9,40.1,31.9,25.5,56,44,32,29.78,29.61,30,11,32,0.00
2013-4-6,62.7,50.3,39.3,32.0,29.1,25.7,61,45,28,29.81,29.69,36,8,38,0.00
2013-4-7,59.5,45.9,36.8,39.8,31.7,26.5,81,59,34,29.74,29.46,30,7,32,0.05
2013-4-8,40.4,24.9,18.2,35.5,19.8,13.4,89,81,68,30.06,29.57,30,17,38,0.00
2013-4-9,28.0,21.0,16.4,16.0,12.7,9.7,85,71,50,30.23,30.05,27,12,32,0.00
2013-4-10,40.4,20.9,10.0,19.3,11.1,5.0,83,68,40,30.17,29.92,21,7,23,0.00
2013-4-11,46.2,42.3,40.6,33.2,31.7,27.1,74,66,47,29.84,29.81,20,7,22,0.00
2013-4-12,51.9,41.8,31.9,33.1,25.1,19.0,86,54,33,29.95,29.67,32,8,33,0.00
2013-4-13,55.5,37.9,32.0,35.8,27.4,18.4,92,68,35,29.67,29.26,28,9,33,0.02
2013-4-14,42.8,33.5,26.4,25.4,20.3,15.7,75,59,38,29.78,29.51,36,8,38,0.03
2013-4-15,36.2,27.2,20.0,19.0,15.9,12.0,82,63,45,29.97,29.75,24,10,26,0.00
2013-4-16,32.2,26.2,21.8,19.2,15.7,11.9,82,65,46,30.10,29.88,26,10,28,0.00
2013-4-17,35.5,26.6,19.7,16.8,14.4,11.5,79,61,38,30.16,30.09,28,12,29,0.00
2013-4-18,52.4,35.0,16.4,20.8,16.1,10.2,81,51,25,30.14,30.01,24,6,24,0.00
2013-4-19,61.1,45.7,27.3,29.0,22.8,13.9,64,42,26,30.01,29.73,30,9,37,0.00
2013-4-20,59.7,47.1,32.9,39.0,29.9,21.9,76,53,28,29.90,29.75,31,4,36,0.05
2013-4-21,45.2,36.8,25.7,35.6,29.2,23.2,92,75,54,30.02,29.90,25,9,31,0.00
2013-4-22,33.7,26.4,20.6,23.3,19.9,14.5,91,77,51,30.28,30.02,21,11,29,0.14
2013-4-23,42.1,29.1,15.0,22.0,15.8,8.6,78,59,37,30.26,30.04,21,7,23,0.00
2013-4-24,54.9,39.6,24.1,28.2,22.3,17.2,79,53,27,30.16,29.91,25,7,25,0.00
2013-4-25,68.0,50.1,31.5,29.9,22.5,15.5,74,40,17,29.92,29.76,32,7,33,0.00
2013-4-26,72.5,57.7,40.3,30.5,25.1,20.1,50,30,14,30.10,29.92,24,7,28,0.00
2013-4-27,77.0,61.2,43.0,35.0,27.2,23.1,49,29,17,30.07,29.82,32,10,32,0.00
2013-4-28,63.9,57.1,52.8,38.9,32.6,25.8,58,40,31,29.93,29.74,27,8,28,0.00
2013-4-29,64.3,50.2,39.5,38.0,32.6,25.3,89,54,28,29.73,29.44,40,11,40,0.09
2013-4-30,47.4,38.1,31.3,29.3,22.5,13.9,83,56,28,30.09,29.67,31,11,33,0.00
2013-5-1,49.2,37.2,29.1,25.5,19.9,11.9,78,53,25,30.51,30.09,22,8,26,0.00
2013-5-2,59.4,43.1,25.0,30.3,22.2,17.6,90,50,21,30.57,30.25,27,8,27,0.00
2013-5-3,66.0,49.0,32.8,38.8,27.0,20.2,75,45,20,30.25,30.03,23,6,24,0.00
2013-5-4,53.1,45.9,42.2,46.9,41.0,38.6,100,83,69,30.17,30.10,18,8,25,0.22
2013-5-5,65.0,51.8,36.2,45.5,36.6,30.9,93,61,30,30.15,29.98,22,4,25,0.00
2013-5-6,72.8,57.1,40.0,40.7,35.2,31.0,83,49,23,30.00,29.83,19,4,20,0.00
2013-5-7,77.5,61.8,43.2,42.9,34.8,25.5,70,40,15,29.90,29.78,26,5,26,0.00
2013-5-8,73.2,60.4,49.2,41.9,36.4,31.9,62,42,25,30.06,29.90,24,10,28,0.00
2013-5-9,75.1,59.6,44.0,41.9,36.0,28.0,69,44,19,30.11,30.02,22,6,23,0.00
2013-5-10,76.2,59.3,45.9,42.9,37.2,32.1,65,45,22,30.29,30.10,35,7,39,0.00
2013-5-11,77.0,60.0,41.1,40.9,33.6,26.2,62,39,22,30.32,30.08,18,5,21,0.00
2013-5-12,85.3,68.4,47.7,44.1,39.4,35.9,66,38,19,30.10,29.94,16,5,16,0.00
2013-5-13,90.0,75.2,58.4,47.5,39.2,34.7,52,30,15,30.02,29.77,36,10,38,0.00
2013-5-14,83.2,69.6,57.9,46.8,40.9,32.9,56,37,19,29.89,29.75,24,8,28,0.00
2013-5-15,77.8,64.2,50.5,41.9,33.5,24.6,50,32,22,29.96,29.76,30,8,32,0.00
2013-5-16,68.8,58.9,51.7,48.1,44.1,40.6,79,59,40,29.83,29.72,26,4,28,0.03
2013-5-17,67.3,55.1,50.1,51.1,47.5,44.1,89,76,48,29.83,29.74,19,4,22,0.04
2013-5-18,57.1,51.8,48.3,49.8,47.4,44.8,94,85,70,29.89,29.80,15,6,20,0.36
2013-5-19,53.5,48.9,46.4,47.1,44.2,41.2,94,84,73,29.99,29.86,27,12,37,0.31
2013-5-20,57.9,50.5,42.9,48.2,44.5,37.5,90,80,64,30.09,29.97,29,10,31,0.09
2013-5-21,69.1,55.2,40.4,42.3,35.2,23.8,86,52,19,30.08,29.82,18,4,18,0.00
2013-5-22,68.1,54.8,41.1,49.6,43.0,37.7,90,67,37,29.86,29.72,21,5,23,0.06
2013-5-23,76.0,57.8,48.0,51.2,48.1,44.5,93,73,36,29.81,29.58,25,8,38,0.16
2013-5-24,70.8,60.0,49.3,49.5,35.7,22.5,91,46,18,29.91,29.70,33,11,33,0.03
2013-5-25,78.7,61.8,45.4,44.8,36.5,28.9,62,41,21,29.88,29.74,23,7,29,0.00
2013-5-26,74.3,61.5,50.5,47.7,43.1,39.7,72,53,32,29.92,29.75,18,5,24,0.00
2013-5-27,68.8,58.9,50.7,50.0,41.8,32.1,88,56,27,29.86,29.72,34,9,38,0.05
2013-5-28,74.0,58.1,48.6,46.9,42.5,35.5,83,59,27,29.75,29.59,27,7,28,0.02
2013-5-29,53.5,50.1,46.6,47.1,45.1,43.3,90,83,71,29.66,29.60,28,10,31,0.49
2013-5-30,59.0,53.1,48.6,45.6,42.0,35.3,87,68,46,29.78,29.60,26,8,26,0.01
2013-5-31,59.6,51.3,45.8,42.6,39.4,34.9,82,65,45,30.17,29.78,32,11,35,0.01
2013-6-1,68.0,57.0,42.6,45.7,40.6,37.8,85,57,34,30.22,30.02,17,5,24,0.00
2013-6-2,79.4,64.1,47.0,50.8,43.6,37.6,82,52,24,30.02,29.57,19,5,22,0.00
2013-6-3,69.2,56.7,45.6,50.9,37.5,31.1,84,52,27,29.98,29.63,34,15,39,0.00
2013-6-4,55.8,48.5,42.3,39.3,37.0,35.0,78,65,51,30.21,29.98,20,6,22,0.00
2013-6-5,70.8,55.9,36.1,41.8,37.2,32.0,89,54,28,30.20,29.98,15,3,15,0.00
2013-6-6,81.2,65.0,48.6,48.8,43.1,37.2,67,47,27,30.04,29.97,15,4,17,0.00
2013-6-7,86.0,67.9,49.7,50.9,47.0,43.0,83,51,24,29.99,29.67,29,5,31,0.00
2013-6-8,79.1,68.4,56.7,50.6,41.9,35.6,68,40,22,29.91,29.72,30,10,36,0.00
2013-6-9,88.7,70.2,49.5,47.0,42.7,40.1,77,42,20,29.94,29.66,24,8,25,0.00
2013-6-10,83.9,70.0,57.4,51.8,46.1,40.2,64,44,26,29.83,29.69,27,7,36,0.00
2013-6-11,79.2,66.1,52.2,56.9,50.5,44.9,83,59,34,29.98,29.72,33,6,44,0.00
2013-6-12,76.0,62.7,50.1,55.9,50.1,45.6,90,65,42,30.06,29.91,18,5,21,0.00
2013-6-13,86.9,66.8,52.5,57.6,48.7,43.2,83,56,22,29.94,29.68,36,8,40,0.06
2013-6-14,69.4,58.7,44.5,47.4,37.5,26.7,90,51,21,30.05,29.87,32,11,36,0.00
2013-6-15,78.7,63.4,43.6,40.7,33.8,28.7,67,36,17,30.06,29.90,24,6,24,0.00
2013-6-16,82.5,65.9,49.9,49.7,42.3,34.5,64,44,22,30.07,29.97,20,5,23,0.00
2013-6-17,84.3,69.8,55.4,52.4,46.9,39.3,72,47,25,30.11,29.94,12,4,15,0.00
2013-6-18,89.1,70.8,54.2,54.0,46.0,40.7,74,45,21,29.97,29.73,50,8,50,0.00
2013-6-19,91.8,72.4,52.8,52.9,41.4,30.6,72,37,13,29.75,29.42,41,12,41,0.00
2013-6-20,75.3,63.9,53.4,37.4,29.7,23.0,42,28,17,29.91,29.71,29,11,32,0.00
2013-6-21,74.2,62.3,50.9,47.0,40.7,33.4,63,46,30,29.95,29.89,22,8,25,0.00
2013-6-22,70.5,57.4,48.1,52.2,46.0,39.6,88,67,46,29.98,29.84,28,6,32,0.03
2013-6-23,80.0,62.3,42.9,47.7,41.2,35.8,86,52,21,29.97,29.69,24,7,25,0.00
2013-6-24,85.3,69.0,53.4,51.0,44.5,38.5,69,44,20,29.71,29.56,29,5,33,0.00
2013-6-25,82.5,72.5,65.0,46.6,43.6,39.6,48,36,23,29.88,29.64,29,11,29,0.00
2013-6-26,87.1,74.5,62.1,54.1,47.7,43.9,57,40,23,30.07,29.86,18,6,23,0.00
2013-6-27,92.3,74.0,55.8,56.6,51.2,47.3,79,48,24,30.19,30.08,21,6,22,0.00
2013-6-28,90.3,76.8,62.2,57.7,53.4,49.3,68,46,28,30.25,30.13,18,5,18,0.00
2013-6-29,92.5,74.7,59.0,59.0,54.0,49.9,78,52,25,30.19,30.02,24,5,28,0.00
2013-6-30,91.5,73.8,56.0,59.5,55.2,51.3,88,56,29,30.15,30.05,18,4,20,0.00
2013-7-1,89.0,76.6,60.7,60.6,55.0,49.7,79,49,30,30.20,30.12,24,5,25,0.00
2013-7-2,93.0,77.0,58.6,58.2,51.2,44.7,75,44,21,30.17,29.99,16,5,16,0.00
2013-7-3,92.1,76.8,60.2,59.1,50.1,45.4,65,42,23,29.99,29.85,30,7,33,0.00
2013-7-4,92.1,74.2,62.0,67.0,55.8,46.4,100,56,28,29.94,29.79,39,6,39,0.35
2013-7-5,79.8,67.5,59.0,68.2,58.4,52.6,100,74,44,29.87,29.76,25,5,26,0.04
2013-7-6,83.7,68.1,55.9,61.0,55.0,49.1,89,65,36,29.97,29.80,30,5,35,0.18
2013-7-7,88.3,68.7,53.4,60.8,54.3,49.0,92,64,28,29.99,29.84,31,6,33,0.03
2013-7-8,89.8,71.8,57.4,61.0,53.6,47.6,85,57,27,30.01,29.85,36,7,36,0.03
2013-7-9,85.6,72.3,59.5,58.8,53.9,48.7,86,56,31,30.14,30.00,14,5,17,0.00
2013-7-10,92.4,74.8,56.2,59.9,52.0,42.0,81,50,22,30.11,29.90,12,4,14,0.00
2013-7-11,92.8,75.1,59.6,61.5,50.7,39.3,68,44,19,29.91,29.73,21,4,25,0.00
2013-7-12,85.7,72.8,60.2,60.4,52.7,42.2,86,54,29,29.93,29.83,25,8,25,0.01
2013-7-13,90.5,71.3,55.3,57.9,49.9,40.3,80,49,22,30.11,29.87,25,7,33,0.00
2013-7-14,86.3,70.9,55.5,57.7,52.4,45.1,78,55,25,30.19,30.00,20,6,26,0.00
2013-7-15,95.5,76.7,59.0,60.5,51.2,40.4,77,47,17,30.04,29.85,13,3,14,0.00
2013-7-16,73.8,64.4,59.6,55.0,51.0,46.4,81,63,46,30.17,29.92,30,11,37,0.00
2013-7-17,89.0,69.9,56.9,62.3,56.2,51.3,87,65,36,30.18,30.01,22,5,24,0.13
2013-7-18,89.6,74.8,60.2,63.5,56.0,38.9,91,57,31,30.12,30.01,20,3,21,0.05
2013-7-19,91.8,74.1,54.9,56.4,48.3,41.8,75,43,23,30.11,29.92,16,4,17,0.00
2013-7-20,90.1,75.5,61.1,51.7,46.8,40.1,65,38,21,29.99,29.84,11,4,14,0.00
2013-7-21,92.0,75.1,56.4,54.0,45.3,37.4,70,39,16,29.89,29.79,20,5,24,0.00
2013-7-22,94.0,75.2,54.5,53.5,44.5,33.8,66,37,18,29.95,29.81,15,4,15,0.00
2013-7-23,91.2,76.4,60.5,50.5,44.9,39.3,59,35,18,30.09,29.95,15,4,17,0.00
2013-7-24,90.8,75.6,59.6,56.8,50.1,42.8,74,44,19,30.10,29.92,18,5,18,0.00
2013-7-25,87.0,73.4,59.7,54.0,50.4,44.7,72,47,27,30.14,29.92,31,8,49,0.00
2013-7-26,88.5,72.4,56.3,58.4,51.9,47.3,80,52,25,30.20,30.02,17,3,17,0.00
2013-7-27,84.2,72.7,57.0,56.6,51.0,46.1,78,49,28,30.03,29.86,15,4,15,0.00
2013-7-28,82.2,67.9,57.7,57.0,51.9,47.9,78,58,34,29.90,29.81,21,5,26,0.02
2013-7-29,77.9,63.6,51.7,56.0,51.9,48.3,89,68,42,30.01,29.89,14,4,16,0.00
2013-7-30,82.0,64.6,52.7,57.0,52.2,44.5,93,68,34,30.22,30.01,45,4,51,0.57
2013-7-31,84.0,67.7,52.3,57.9,52.4,39.6,94,63,22,30.25,30.06,15,4,17,0.09
2013-8-1,87.0,72.7,59.1,60.1,55.1,51.1,90,57,31,30.12,29.78,25,8,35,0.00
2013-8-3,82.9,73.9,63.8,59.0,56.7,52.5,79,56,38,30.10,29.86,16,6,23,0.00
2013-8-4,85.6,70.4,55.9,60.3,54.4,49.1,88,60,33,30.07,29.94,26,5,31,0.00
2013-8-5,88.5,71.9,57.0,58.7,52.5,44.2,87,54,26,30.02,29.82,29,6,38,0.00
2013-8-6,83.1,70.2,55.0,52.7,47.0,42.0,77,46,25,30.03,29.90,21,7,23,0.00
2013-8-7,87.0,70.3,54.2,52.7,47.4,42.8,75,48,25,30.03,29.88,22,4,22,0.00
2013-8-8,84.3,69.4,52.6,53.6,49.1,42.0,77,50,28,30.04,29.95,21,4,23,0.00
2013-8-9,73.2,65.1,57.6,58.2,53.1,49.9,81,66,49,30.13,30.04,14,4,16,0.00
2013-8-10,85.8,66.8,51.7,56.2,49.8,37.8,88,59,24,30.09,30.00,31,5,35,0.00
2013-8-11,86.0,68.1,52.9,52.4,47.5,43.3,79,51,27,30.10,30.01,33,5,35,0.00
2013-8-12,86.3,70.0,51.2,54.8,47.2,42.1,76,47,23,30.10,30.00,33,4,33,0.00
2013-8-13,84.5,67.1,52.9,54.0,48.8,44.4,80,54,28,30.14,30.04,34,6,38,0.06
2013-8-14,86.2,67.2,50.2,53.3,48.1,42.9,87,55,23,30.12,29.98,13,3,13,0.00
2013-8-15,90.5,72.2,56.1,53.3,47.1,40.8,72,45,19,30.08,29.97,15,4,15,0.00
2013-8-16,95.2,74.2,52.8,55.4,44.7,37.0,72,39,15,30.04,29.90,15,4,15,0.00
2013-8-17,93.3,75.2,54.3,51.6,44.2,31.8,58,35,19,30.03,29.90,13,4,14,0.00
2013-8-18,89.0,73.9,60.4,54.0,48.5,41.6,65,42,24,30.03,29.93,17,5,20,0.00
2013-8-19,93.5,75.5,54.6,55.4,48.2,43.7,73,41,19,30.03,29.87,12,4,13,0.00
2013-8-20,91.2,77.3,63.9,49.8,43.3,36.0,57,32,18,29.99,29.87,12,4,13,0.00
2013-8-21,87.0,73.7,64.8,51.0,45.8,38.4,53,38,23,30.09,29.91,19,6,24,0.00
2013-8-22,89.0,72.1,58.2,58.5,52.9,47.6,77,54,28,30.11,29.93,25,6,25,0.00
2013-8-23,91.3,73.6,57.9,56.7,52.8,48.5,85,52,25,29.96,29.80,22,6,22,0.00
2013-8-24,86.5,72.5,63.9,57.9,51.8,40.9,66,50,28,29.98,29.87,31,6,32,0.00
2013-8-25,88.7,73.8,60.2,56.1,48.7,41.8,70,44,20,30.05,29.92,19,5,21,0.00
2013-8-26,91.3,75.1,61.7,59.1,50.2,44.2,73,45,21,30.03,29.92,37,8,37,0.00
2013-8-27,87.5,72.8,60.0,56.4,52.5,46.9,75,52,26,30.06,29.96,28,4,28,0.00
2013-8-28,94.2,74.8,59.5,58.9,53.3,47.5,80,52,22,30.02,29.90,26,6,26,0.00
2013-8-29,90.9,70.6,57.4,62.5,53.4,48.5,85,58,25,30.14,30.01,35,6,41,0.00
2013-8-30,91.3,69.7,54.4,62.4,53.4,47.0,89,61,24,30.10,29.93,31,5,31,0.00
2013-8-31,83.3,71.1,60.6,50.1,46.2,41.6,57,42,28,30.10,29.96,18,6,24,0.00
2013-9-1,89.2,68.9,48.2,49.1,44.7,40.3,77,46,20,30.10,29.94,22,4,22,0.00
2013-9-2,78.7,67.8,55.1,60.8,48.8,38.6,74,52,30,29.99,29.91,16,4,16,0.00
2013-9-3,90.8,74.9,61.6,60.4,55.8,50.4,83,55,28,30.05,29.96,13,3,13,0.00
2013-9-4,89.2,73.2,58.7,63.2,58.0,51.8,93,62,33,30.14,30.04,38,7,40,0.00
2013-9-5,93.0,76.0,58.2,61.0,55.9,51.2,83,54,27,30.11,29.93,33,6,46,0.00
2013-9-6,86.4,71.3,59.0,63.0,57.2,48.8,86,63,30,30.09,29.95,55,7,55,0.52
2013-9-7,86.8,70.9,59.0,65.4,57.3,48.6,100,66,28,30.08,29.93,29,5,35,0.04
2013-9-8,76.9,65.2,57.6,61.1,55.3,50.6,87,72,50,30.04,29.83,25,4,25,0.02
2013-9-9,76.3,64.2,52.9,53.7,48.1,43.6,88,59,35,30.03,29.87,23,4,25,0.00
2013-9-10,80.1,65.9,52.5,51.1,47.7,44.2,77,55,31,30.12,30.03,15,4,20,0.00
2013-9-11,83.4,66.6,50.0,52.4,46.2,41.2,82,52,23,30.23,30.10,17,4,17,0.00
2013-9-12,76.8,65.1,53.9,52.4,49.0,44.0,75,57,38,30.27,30.07,24,6,25,0.00
2013-9-13,69.4,59.9,53.2,58.1,53.1,48.5,89,79,56,30.07,29.85,20,3,20,0.03
2013-9-14,61.3,58.1,55.7,56.6,55.1,52.6,93,90,83,30.05,29.86,20,5,23,0.68
2013-9-15,68.7,61.5,55.2,59.1,55.7,52.2,92,82,68,30.16,30.02,15,4,16,0.01
2013-9-16,79.8,64.5,50.1,58.6,53.0,48.2,94,69,39,30.02,29.82,22,6,22,0.00
2013-9-17,78.5,61.6,52.6,62.4,51.1,46.6,100,71,34,29.90,29.62,24,6,25,0.17
2013-9-18,70.0,56.6,49.3,51.0,44.1,34.6,93,65,34,29.95,29.66,32,10,37,0.03
2013-9-19,64.8,52.7,39.3,43.7,39.6,35.2,90,63,41,30.13,29.94,13,2,15,0.00
2013-9-20,71.8,54.3,37.6,45.2,38.7,34.7,91,61,26,30.10,29.81,23,5,23,0.00
2013-9-21,83.5,61.0,40.1,46.9,39.6,35.4,86,51,19,29.81,29.56,14,4,16,0.00
2013-9-22,74.4,62.2,54.1,47.7,42.3,38.3,65,49,33,29.59,29.48,22,4,29,0.00
2013-9-23,70.8,60.0,46.4,43.9,36.8,32.0,75,45,25,29.90,29.59,31,11,35,0.00
2013-9-24,75.6,60.3,45.0,42.1,36.7,32.9,73,44,22,29.92,29.59,32,9,32,0.00
2013-9-25,55.3,48.1,45.1,49.7,42.8,38.1,100,83,54,29.68,29.43,17,4,17,0.46
2013-9-26,50.6,44.2,39.3,43.0,38.4,35.1,93,81,61,29.90,29.64,20,7,26,0.00
2013-9-27,45.4,39.9,36.5,39.5,36.4,34.1,93,87,73,29.93,29.86,19,7,23,0.12
2013-9-28,62.7,47.1,35.6,43.3,37.4,33.8,94,73,40,29.95,29.89,29,7,29,0.00
2013-9-29,66.7,62.2,54.5,45.6,38.9,35.5,63,43,35,29.71,29.63,41,20,47,0.00
2013-9-30,71.8,54.0,42.4,46.8,40.4,34.2,82,62,34,29.83,29.56,40,9,40,0.00
2013-10-1,67.8,51.9,35.2,41.4,35.8,30.5,85,57,33,29.90,29.80,15,3,15,0.00
2013-10-2,59.6,49.4,41.2,41.1,35.6,32.8,86,61,38,30.03,29.84,19,5,26,0.02
2013-10-3,44.6,37.4,31.9,41.7,35.3,30.5,95,92,86,30.12,29.78,24,10,35,0.12
2013-10-4,36.6,32.4,27.5,30.7,28.8,22.6,96,87,73,30.35,30.12,20,9,29,0.12
2013-10-5,45.0,33.5,22.2,35.6,27.7,18.8,90,80,65,30.28,30.20,17,4,17,0.00
2013-10-6,59.9,42.6,29.6,44.2,35.4,26.8,90,77,52,30.23,30.06,21,4,22,0.00
2013-10-7,63.1,46.1,33.0,47.6,38.7,30.6,94,77,50,30.06,29.71,17,3,17,0.00
2013-10-8,59.7,48.1,40.2,40.6,37.0,33.1,89,67,45,29.88,29.66,20,6,23,0.00
2013-10-9,50.7,42.9,35.1,40.3,35.3,30.6,91,75,60,29.99,29.84,13,2,16,0.00
2013-10-10,49.7,41.4,32.1,43.8,38.4,30.3,100,89,77,29.84,29.62,11,1,21,0.09
2013-10-11,53.9,44.0,32.6,43.1,32.3,24.6,92,66,35,29.99,29.66,26,10,31,0.01
2013-10-12,52.7,39.7,26.9,37.3,31.4,24.1,92,74,47,30.04,29.96,19,3,21,0.00
2013-10-13,48.2,39.6,34.8,37.8,33.9,30.8,90,80,65,30.06,29.98,16,6,25,0.02
2013-10-14,37.8,36.2,34.4,34.1,32.3,30.0,92,86,79,30.31,30.00,25,11,35,0.00
2013-10-15,47.9,37.8,27.6,31.1,27.8,24.4,88,69,44,30.31,30.10,18,5,18,0.00
2013-10-16,51.9,36.4,23.7,34.4,28.4,21.5,92,75,47,30.10,29.96,13,4,17,0.00
2013-10-17,41.4,36.2,33.6,34.7,31.8,29.6,91,84,66,30.12,30.05,29,5,32,0.02
2013-10-18,53.3,38.2,28.6,32.2,27.9,22.3,86,69,31,30.16,29.99,19,6,22,0.00
2013-10-19,59.4,41.5,25.6,39.8,30.4,22.3,88,67,39,29.99,29.83,21,4,22,0.00
2013-10-20,53.4,43.9,37.6,39.6,34.4,30.8,88,71,43,30.03,29.91,24,6,32,0.02
2013-10-21,56.7,44.8,34.4,41.7,35.4,30.9,89,71,48,30.08,30.01,11,2,13,0.00
2013-10-22,62.9,46.7,32.9,42.3,35.8,29.3,89,68,41,30.12,30.02,11,4,14,0.00
2013-10-23,62.7,46.8,32.1,39.9,34.7,28.4,89,65,37,30.16,30.07,11,2,11,0.00
2013-10-24,59.0,44.4,32.5,41.5,35.8,29.9,92,74,48,30.20,30.09,12,2,12,0.00
2013-10-25,65.6,45.4,31.2,41.4,34.2,28.3,93,69,32,30.20,30.09,17,2,17,0.00
2013-10-26,64.6,45.9,30.9,40.0,33.7,26.9,88,65,37,30.23,29.98,18,4,18,0.00
2013-10-27,62.9,45.0,31.3,39.2,31.6,26.8,86,63,30,29.98,29.73,23,5,32,0.00
2013-10-28,34.4,28.1,23.3,29.5,24.9,19.7,92,87,81,30.01,29.89,29,12,39,0.00
2013-10-29,33.7,28.4,23.0,29.5,24.1,19.7,92,84,75,30.00,29.81,14,3,14,0.01
2013-10-30,39.3,32.9,27.6,35.7,30.5,25.3,95,91,83,29.82,29.73,10,2,10,0.02
2013-10-31,54.8,38.7,26.5,38.8,30.7,24.5,96,76,39,29.90,29.68,36,5,45,0.01
2013-11-1,55.2,45.5,38.9,27.7,25.3,23.5,60,46,31,30.11,29.90,18,9,23,0.00
2013-11-2,53.8,38.9,26.7,32.8,27.1,22.5,86,65,40,30.06,29.52,21,5,21,0.00
2013-11-3,45.3,36.6,26.0,33.5,23.8,13.9,81,61,31,29.81,29.50,23,6,26,0.00
2013-11-4,42.2,31.3,23.3,24.6,18.5,13.6,85,61,35,29.98,29.81,13,3,15,0.00
2013-11-5,42.5,29.7,15.9,26.8,15.8,10.4,92,61,29,30.05,29.94,28,8,36,0.00
2013-11-6,49.4,36.2,26.1,23.7,19.7,15.5,70,52,34,30.23,29.99,26,5,26,0.00
2013-11-7,45.6,33.2,22.0,28.1,23.1,16.1,83,67,46,30.23,29.66,18,4,18,0.00
2013-11-8,52.4,43.2,29.7,33.4,24.4,19.5,89,50,30,29.93,29.61,38,11,40,0.00
2013-11-9,50.7,40.4,29.3,26.8,24.4,21.3,75,54,37,30.13,29.93,23,4,26,0.00
2013-11-10,45.1,35.1,28.4,31.6,26.9,22.7,87,72,59,30.13,30.03,15,2,17,0.00
2013-11-11,40.2,30.9,25.7,29.0,25.5,21.8,92,81,62,30.45,30.13,14,4,20,0.00
2013-11-12,55.8,36.0,21.4,34.8,26.8,18.9,93,72,42,30.46,30.20,21,4,21,0.00
2013-11-13,53.9,39.9,28.9,34.9,29.8,22.9,84,68,46,30.21,29.97,21,3,22,0.00
2013-11-14,49.6,35.6,27.1,35.2,26.7,21.1,83,71,47,30.06,29.63,14,3,15,0.00
2013-11-15,49.7,36.1,21.8,30.0,20.2,16.0,88,56,29,29.63,29.29,26,9,28,0.00
2013-11-16,48.9,38.5,31.4,27.0,21.2,17.8,81,51,32,29.42,29.17,30,10,37,0.00
2013-11-17,46.9,36.2,28.8,26.1,15.3,11.5,81,43,28,29.90,29.42,32,9,37,0.00
2013-11-18,53.9,37.9,25.5,23.6,17.8,12.6,63,45,27,29.96,29.73,24,6,24,0.00
2013-11-19,58.3,43.3,27.5,56.2,25.5,15.6,100,51,34,29.72,29.55,30,8,35,0.01
2013-11-20,46.8,26.1,11.1,28.0,17.2,6.8,86,71,46,30.20,29.62,25,10,31,0.05
2013-11-21,22.2,11.2,2.3,11.5,5.3,-1.7,89,77,59,30.45,30.18,10,2,13,0.00
2013-11-22,25.6,9.3,-2.0,12.8,3.0,-6.4,87,76,52,30.52,30.41,7,1,8,0.00
2013-11-23,26.7,12.4,1.4,15.7,6.0,-2.8,86,76,60,30.52,30.17,9,1,9,0.00
2013-11-24,34.1,17.7,4.6,18.9,10.2,0.6,93,73,50,30.17,29.98,11,1,10,0.00
2013-11-25,43.7,27.5,15.1,28.3,19.6,9.9,92,73,50,30.29,30.08,10,1,12,0.00
2013-11-26,41.9,28.6,21.3,27.5,21.6,16.8,86,76,55,30.31,30.09,10,2,10,0.00
2013-11-27,46.6,31.5,23.6,29.9,24.0,19.2,87,75,50,30.09,29.98,8,2,9,0.00
2013-11-28,40.9,28.4,17.7,30.3,23.1,14.2,92,81,65,30.07,29.96,9,1,10,0.00
2013-11-29,47.7,35.3,24.4,32.9,27.2,20.9,92,74,52,30.07,29.98,22,3,25,0.00
2013-11-30,49.1,42.1,28.7,32.2,27.9,22.9,81,58,48,30.10,30.00,26,8,26,0.00
2013-12-1,45.2,38.0,31.5,31.7,28.8,25.4,79,70,56,30.00,29.64,19,4,23,0.00
2013-12-2,56.3,37.4,21.1,37.8,29.6,19.0,93,76,36,29.64,29.35,26,6,36,0.02
2013-12-3,21.0,10.6,4.6,19.0,7.5,0.7,92,87,84,29.92,29.51,25,15,31,0.01
2013-12-4,5.7,1.6,-4.5,1.3,-2.6,-8.8,84,82,80,30.03,29.91,18,7,21,0.00
2013-12-5,5.3,-3.7,-9.8,0.2,-8.5,-14.5,82,79,76,30.07,29.99,9,2,10,0.00
2013-12-6,-2.1,-7.8,-12.4,-8.4,-13.1,-17.8,82,77,73,30.19,30.07,12,3,14,0.00
2013-12-7,-2.3,-10.3,-15.9,-8.7,-15.9,-21.2,100,76,72,30.16,29.84,11,2,13,0.00
2013-12-8,1.4,-6.6,-15.7,-2.9,-11.7,-20.8,82,78,72,30.01,29.81,12,2,12,0.00
2013-12-9,21.1,5.4,-12.6,9.2,-2.4,-17.5,92,71,53,30.00,29.91,46,11,46,0.00
2013-12-10,29.0,19.1,8.8,16.9,8.3,1.3,88,64,41,30.17,29.84,38,12,41,0.00
2013-12-11,20.9,11.9,4.4,13.0,7.1,0.6,88,81,70,30.20,30.14,13,2,13,0.00
2013-12-12,29.6,17.6,10.8,18.7,11.0,5.6,81,75,60,30.17,29.87,10,2,12,0.00
2013-12-13,37.9,25.8,13.4,24.9,18.8,8.5,92,75,56,30.12,29.84,19,2,21,0.00
2013-12-14,41.4,28.3,13.2,26.4,18.9,10.2,89,70,46,30.14,30.02,30,8,35,0.00
2013-12-15,48.4,41.5,26.1,25.5,22.6,18.8,74,48,38,30.03,29.92,43,23,45,0.00
2013-12-16,51.0,46.1,41.0,21.8,20.2,18.7,43,36,30,30.15,29.95,39,22,40,0.00
2013-12-17,48.1,39.0,29.2,27.3,22.6,19.3,73,53,36,30.16,29.81,40,8,44,0.00
2013-12-18,57.1,44.9,27.8,24.5,21.1,17.6,85,43,22,29.80,29.59,31,10,33,0.00
2013-12-19,27.6,13.1,4.5,25.2,7.7,-0.2,91,79,69,29.93,29.60,37,13,46,0.00
2013-12-20,20.0,11.5,3.2,11.8,5.8,-0.5,94,78,65,29.84,29.46,18,4,18,0.00
2013-12-21,29.0,24.5,17.1,21.8,15.7,8.9,87,70,46,29.86,29.44,32,5,32,0.00
2013-12-22,22.9,17.9,11.1,20.4,13.8,6.3,90,84,77,30.15,29.84,17,4,22,0.00
2013-12-23,26.7,17.6,7.3,19.6,13.3,3.5,100,83,74,30.15,29.82,17,4,17,0.00
2013-12-24,40.7,31.3,19.1,31.2,21.9,14.5,91,70,43,30.24,29.80,27,7,33,0.00
2013-12-25,30.9,20.0,11.3,18.4,13.8,7.8,87,77,58,30.28,30.10,18,3,20,0.00
2013-12-26,37.5,25.0,18.2,20.5,16.2,12.9,85,70,48,30.19,30.09,17,4,17,0.00
2013-12-27,41.4,27.5,19.7,25.7,19.4,14.8,86,72,52,30.16,29.85,11,2,11,0.00
2013-12-28,46.6,25.2,15.1,25.3,15.6,8.6,92,68,31,30.23,29.77,37,8,37,0.00
2013-12-29,35.1,18.8,7.6,17.8,11.7,3.4,92,74,49,30.22,29.84,20,4,26,0.00
2013-12-30,37.4,28.5,18.9,22.1,18.6,13.2,83,67,48,30.11,29.88,26,4,26,0.00
2013-12-31,43.6,35.0,27.1,31.4,24.2,20.1,89,66,45,29.95,29.80,32,8,37,0.00
2014-1-1,37.0,28.1,17.8,29.2,23.4,14.7,92,83,65,30.23,29.94,18,4,22,0.00
2014-1-2,29.2,19.9,13.0,22.6,15.6,10.1,89,83,67,30.14,29.81,13,3,14,0.00